This is the latest recevied weather packets stored in our database for station/object KP4CRN. If no packets are shown the sender has not sent any weather packets the latest 10 day(s).
| Time | Temp. | Humidity | Pressure | Rain* | Wind** | Luminosity | Snow |
|---|---|---|---|---|---|---|---|
| 1777734208 | 31.11° C | 71% | 1017.4 hPa | 0 mm | - | 792 W/m² | - |
| 1777733905 | 31.67° C | 71% | 1017.5 hPa | 0 mm | - | 316 W/m² | - |
| 1777733602 | 30.56° C | 73% | 1017.5 hPa | 0 mm | - | 789 W/m² | - |
| 1777733298 | 30.56° C | 73% | 1017.5 hPa | 0 mm | - | 812 W/m² | - |
| 1777732995 | 30.56° C | 74% | 1017.7 hPa | 0 mm | - | 729 W/m² | - |
| 1777732691 | 31.11° C | 72% | 1017.6 hPa | 0 mm | - | 836 W/m² | - |
| 1777732388 | 31.11° C | 75% | 1017.6 hPa | 0 mm | - | 772 W/m² | - |
| 1777732086 | 30.56° C | 75% | 1017.8 hPa | 0 mm | - | 755 W/m² | - |
| 1777731783 | 30° C | 76% | 1017.8 hPa | 0 mm | - | 809 W/m² | - |
| 1777731479 | 30° C | 77% | 1017.9 hPa | 0 mm | - | 228 W/m² | - |
| 1777731178 | 29.44° C | 78% | 1017.8 hPa | 0 mm | - | 266 W/m² | - |
| 1777730875 | 29.44° C | 79% | 1017.5 hPa | 0 mm | - | 201 W/m² | - |
| 1777730573 | 29.44° C | 78% | 1017.7 hPa | 0 mm | - | 197 W/m² | - |
| 1777730268 | 30° C | 78% | 1017.7 hPa | 0 mm | - | 212 W/m² | - |
| 1777729965 | 29.44° C | 77% | 1017.6 hPa | 0 mm | - | 316 W/m² | - |
| 1777729661 | 30° C | 76% | 1017.7 hPa | 0 mm | - | 375 W/m² | - |
| 1777729358 | 30° C | 77% | 1017.7 hPa | 0 mm | - | 630 W/m² | - |
| 1777729055 | 29.44° C | 78% | 1017.6 hPa | 0 mm | - | 604 W/m² | - |
| 1777728752 | 29.44° C | 78% | 1017.5 hPa | 0 mm | - | 595 W/m² | - |
| 1777728448 | 30° C | 77% | 1017.5 hPa | 0 mm | - | 605 W/m² | - |
| 1777728146 | 29.44° C | 78% | 1017.6 hPa | 0 mm | - | 640 W/m² | - |
| 1777727842 | 29.44° C | 78% | 1017.5 hPa | 0 mm | - | 149 W/m² | - |
| 1777727540 | 28.89° C | 81% | 1017.6 hPa | 0 mm | - | 550 W/m² | - |
| 1777727237 | 28.89° C | 79% | 1017.4 hPa | 0 mm | - | 529 W/m² | - |
| 1777726934 | 28.89° C | 81% | 1017.5 hPa | 0 mm | - | 467 W/m² | - |
* Rain latest hour (hover to see other rain measurements)
** Current wind speed in m/s (hover to see current wind gust speed)